This demonstration page uses our WeatherBlox Daily Observations layout. Learn more.

Left ArrowRight Arrow

36.19886, -115.1175

Hourly Observations for August 30, 2015

Temp ( °F °C ) Dew Point ( °F °C ) Humidity (%) Winds ( mph kmh ) Pressure ( in mb ) Visibility ( mi km ) Precip ( " mm )
12:53 am 00:53 Clear 93 33.9 39 3.9 15 15 SSW 8 13 29.77 1008 10 16 0.00 0.00
1:53 am 01:53 Clear 90 32.2 40 4.4 17 17 SW 10 17 29.76 1008 10 16 0.00 0.00
2:53 am 02:53 Clear 90 32.2 41 5 18 18 SSW 9 15 29.77 1008 10 16 0.00 0.00
3:53 am 03:53 Clear 88 31.1 42 5.6 20 20 SSW 12 19 29.77 1008 10 16 0.00 0.00
4:53 am 04:53 Clear 87 30.6 43 6.1 21 21 S 13 20 29.78 1009 10 16 0.00 0.00
5:53 am 05:53 Clear 86 30 44 6.7 23 23 SSW 10 17 29.80 1009 10 16 0.00 0.00
6:53 am 06:53 Sunny 87 30.6 44 6.7 22 22 SSW 8 13 29.82 1010 10 16 0.00 0.00
7:53 am 07:53 Sunny 88 31.1 45 7.2 22 22 S 10 17 29.83 1010 10 16 0.00 0.00
8:53 am 08:53 Sunny 91 32.8 45 7.2 20 20 SSW 12 19 29.83 1010 10 16 0.00 0.00
9:53 am 09:53 Sunny 93 33.9 44 6.7 18 18 S 15 24 29.84 1010 10 16 0.00 0.00
10:53 am 10:53 Sunny 94 34.4 43 6.1 17 17 SSW 10 17 29.84 1011 10 16 0.00 0.00
11:53 am 11:53 Sunny 97 36.1 44 6.7 16 16 S 21 33 29.82 1010 10 16 0.00 0.00
12:53 pm 12:53 Sunny 98 36.7 45 7.2 16 16 SSW 16 26 29.80 1009 10 16 0.00 0.00
1:53 pm 13:53 Sunny 100 37.8 43 6.1 14 14 SW 22 35 29.78 1008 10 16 0.00 0.00
2:53 pm 14:53 Sunny 100 37.8 39 3.9 12 12 SW 22 35 29.75 1007 10 16 0.00 0.00
3:23 pm 15:23 Sunny 100 37.8 36 2.2 11 11 W 18 30 29.59 1002 10 16 0.00 0.00
3:53 pm 15:53 Sunny 98 36.7 36 2.2 11 11 WSW 17 28 29.74 1007 10 16 0.00 0.00
4:53 pm 16:53 Sunny 100 37.8 35 1.7 10 10 SW 17 28 29.71 1006 10 16 0.00 0.00
5:53 pm 17:53 Sunny 98 36.7 39 3.9 13 13 WSW 18 30 29.70 1006 10 16 0.00 0.00
6:53 pm 18:53 Sunny 97 36.1 40 4.4 14 14 WSW 13 20 29.69 1005 10 16 0.00 0.00
7:53 pm 19:53 Clear 95 35 41 5 15 15 WSW 12 19 29.70 1006 10 16 0.00 0.00
8:53 pm 20:53 Clear 94 34.4 38 3.3 14 14 SW 13 20 29.72 1007 10 16 0.00 0.00
9:53 pm 21:53 Clear 91 32.8 39 3.9 16 16 WSW 8 13 29.74 1007 10 16 0.00 0.00
10:53 pm 22:53 Clear 91 32.8 40 4.4 17 17 NNW 12 19 29.74 1007 10 16 0.00 0.00
11:53 pm 23:53 Clear 86 30 41 5 20 20 Calm 29.75 1007 10 16 0.00 0.00

Powered by AerisWeather